FALCON 9 DEB (53875 NORAD) Tracking and Keplerian Element Data

This shows tracking and keplerian element data for the satellite.

Feedback or suggestion? Click here.




ElementValue
Catalog53875
NameFALCON 9 DEB
Epoch Orbit216
Epoch Day268.62829553
Epoch Year2022
RAAN225.8617
Inclination53.2168
Eccentricity0.006071
Argument of Perigee68.4105
Mean Anonmoly292.3383
Mean Motion16.04786304
Decay Rate0.00646607
L11 53875U 22114BK 22268.62829553 .00646607 21314-3 72805-3 0 9996
L22 53875 53.2168 225.8617 0060710 68.4105 292.3383 16.04786304 2162



Live tracking and technical data element details for FALCON 9 DEB (NORAD 53875). FALCON 9 DEB can be tracked NOW for your location showing map with azimuth and elevation plus other details from your city location.







IsCatalogInMostPopularTable: catalog: 53875, numindb: 1
Update: records affected: 1



GetName: 53875 FALCON 9 DEB

Hit Count: updated at: Thu, 08 Dec 2022 10:20:27 GMT